This is the latest recevied weather packets stored in our database for station/object K3TLB-13. If no packets are shown the sender has not sent any weather packets the latest 10 day(s).
| Time | Temp. | Humidity | Pressure | Rain* | Wind** | Luminosity | Snow |
|---|---|---|---|---|---|---|---|
| 1777557860 | 13.89° C | 63% | 1009.4 hPa | 0 mm | - | - | - |
| 1777557559 | 13.89° C | 62% | 1009.3 hPa | 0 mm | - | - | - |
| 1777557259 | 14.44° C | 62% | 1009.3 hPa | 0 mm | - | - | - |
| 1777557014 | 14.44° C | 63% | 1009.2 hPa | 0 mm | - | - | - |
| 1777556959 | 14.44° C | 63% | 1009.2 hPa | 0 mm | - | - | - |
| 1777556659 | 13.89° C | 66% | 1009.3 hPa | 0 mm | - | - | - |
| 1777556359 | 13.89° C | 66% | 1009.3 hPa | 0 mm | - | - | - |
| 1777556059 | 13.89° C | 63% | 1009.4 hPa | 0 mm | - | - | - |
| 1777555759 | 13.89° C | 67% | 1009.3 hPa | 0 mm | - | - | - |
| 1777555459 | 13.89° C | 69% | 1009.3 hPa | 0 mm | - | - | - |
| 1777555160 | 13.33° C | 68% | 1009.2 hPa | 0 mm | - | - | - |
| 1777554859 | 13.33° C | 71% | 1009.1 hPa | 0 mm | - | - | - |
| 1777554559 | 13.33° C | 71% | 1009.2 hPa | 0 mm | - | - | - |
| 1777554259 | 13.33° C | 70% | 1009 hPa | 0 mm | - | - | - |
| 1777553959 | 13.33° C | 71% | 1009.1 hPa | 0 mm | - | - | - |
| 1777553698 | 13.33° C | 74% | 1009.1 hPa | 0 mm | - | - | - |
| 1777553659 | 13.33° C | 74% | 1009.1 hPa | 0 mm | - | - | - |
| 1777553362 | 12.78° C | 73% | 1009.1 hPa | 0 mm | - | - | - |
| 1777553060 | 12.78° C | 72% | 1009.1 hPa | 0 mm | - | - | - |
| 1777552759 | 12.78° C | 73% | 1009.1 hPa | 0 mm | - | - | - |
| 1777552459 | 12.78° C | 74% | 1009.1 hPa | 0 mm | - | - | - |
| 1777552159 | 12.78° C | 76% | 1009.1 hPa | 0 mm | - | - | - |
| 1777551911 | 12.78° C | 73% | 1009.1 hPa | 0 mm | - | - | - |
| 1777551859 | 12.78° C | 73% | 1009.1 hPa | 0 mm | - | - | - |
| 1777551559 | 12.78° C | 75% | 1009.1 hPa | 0 mm | - | - | - |
* Rain latest hour (hover to see other rain measurements)
** Current wind speed in m/s (hover to see current wind gust speed)